[[{"header":{"parameterUnit":"m.s-1","parameterCategory":1,"la1":30.2991,"la2":30.254,"lo1":-89.0895,"lo2":-89.0444,"dy":0.0017,"dx":0.0017,"nx":28,"ny":28,"refTime":"2024-04-30T03:00:00:Z","depth":0,"parameterNumber":2,"parameterNumberName":"U-component_of_WINDS"},"data":[0,0,0,0,0,0,0,0,0,0,0,0,0,0,0,0,0,0,0,0,0,0,0,0,0,0,0,0,0,0,0,0,0,0,0,0,0,0,0,0,0,0,0,0,0,0,0,0,0,0,0,0,0,0,0,0,0,0,0.6477,0.6478,0,0.6526,0.6526,0.6527,0.6515,0.6514,0.6514,0.6513,0.6561,0.6563,0.6565,0,0,0,0,0,0,0,0,0,0,0,0,0,0.6371,0.6374,0.6477,0.6478,0.6478,0.6526,0.6526,0.6527,0.6516,0.6514,0.6513,0.6512,0.656,0.6563,0.6565,0,0,0,0,0,0,0,0,0,0,0,0,0,0.6418,0.6374,0.6477,0.6478,0.6479,0.6526,0.6526,0.6527,0.6516,0.6514,0.6513,0.6512,0.6559,0.6562,0.6566,0.6613,0,0,0.6575,0.6577,0,0,0,0,0,0,0,0,0.6416,0.6422,0.6477,0.6478,0.6479,0.6513,0.6507,0.6556,0.6516,0.6502,0.6513,0.6511,0.6546,0.655,0.6562,0.6616,0.6618,0.6576,0.6578,0.6579,0.658,0,0,0,0,0,0,0,0.6413,0.642,0.6496,0.6478,0.6479,0.6476,0.6481,0.6516,0.6531,0.6503,0.6502,0.6508,0.6546,0.6559,0.6563,0.6618,0.6576,0.6578,0.658,0.6582,0.6712,0.6714,0,0,0,0,0,0,0.6409,0.6418,0.6495,0.6498,0.6443,0.6479,0.6484,0.6504,0.6531,0.6533,0.6509,0.6507,0.6554,0.656,0.6565,0.6623,0.6579,0.6582,0.6584,0.6711,0.6713,0.6714,0,0,0,0,0,0,0.6407,0.6416,0.6493,0.6457,0.6467,0.6482,0.6504,0.6505,0.6518,0.6536,0.6538,0.652,0.6554,0.656,0.6601,0.6624,0.6583,0.6586,0.6709,0.6711,0.6713,0.6738,0,0,0,0,0,0,0.6404,0.6415,0.6434,0.6458,0.6469,0.6529,0.6505,0.6507,0.6524,0.6522,0.6546,0.6549,0.6553,0.6597,0.6605,0.6628,0.6589,0.6707,0.671,0.6713,0.6735,0.6741,0.6746,0,0,0,0,0,0.64,0.6439,0.6435,0.6445,0.6493,0.6531,0.6537,0.6541,0.6526,0.6545,0.6556,0.6548,0.662,0.6601,0.661,0.6634,0.6706,0.6709,0.6712,0.6733,0.674,0.6746,0,0,0,0,0,0,0.6417,0.6442,0.6438,0.6486,0.6506,0.6529,0.6553,0.6548,0.6573,0.657,0.6573,0.6579,0.662,0.6631,0.6609,0.6681,0.6661,0.6666,0.6673,0.668,0.6685,0.6682,0.6592,0,0,0,0,0,0.6427,0.6456,0.6476,0.6516,0.6526,0.6538,0.6554,0.6556,0.6576,0.6585,0.6598,0.6618,0.6645,0.6663,0.6689,0.6736,0.6741,0.6757,0.6763,0.6767,0.6772,0.6797,0.6804,0.6726,0.6726,0.6725,0,0,0.6446,0.6464,0.6482,0.652,0.6536,0.6565,0.6545,0.6577,0.6598,0.6589,0.6629,0.664,0.6662,0.6706,0.6726,0.6716,0.6794,0.6771,0.6774,0.6777,0.6801,0.6809,0.6815,0.6728,0.6727,0.6727,0,0,0.6497,0.6513,0.6549,0.6565,0.6589,0.6596,0.6604,0.6627,0.6634,0.6674,0.6668,0.6692,0.6739,0.6755,0.6769,0.6825,0.6819,0.6833,0.6861,0.6885,0.6891,0.6897,0.6917,0.6924,0.6837,0.6838,0.6838,0,0.6519,0.6563,0.6567,0.66,0.6616,0.661,0.6645,0.666,0.6691,0.6702,0.6691,0.6749,0.6763,0.6811,0.6824,0.6836,0.6845,0.6831,0.689,0.6896,0.6901,0.692,0.6927,0.6839,0.6839,0.6839,0.6839,0,0.6588,0.6619,0.6645,0.6675,0.6695,0.6728,0.6736,0.6755,0.6755,0.6763,0.6803,0.682,0.6849,0.686,0.6859,0.6907,0.69,0.6889,0.6869,0.691,0.6928,0.6935,0.6841,0.6841,0.684,0.684,0,0,0.6653,0.6685,0.6694,0.6707,0.6733,0.6757,0.6789,0.6818,0.6834,0.6855,0.6882,0.6921,0.6911,0.6927,0.6928,0.695,0.6993,0.6936,0.6937,0.6946,0.7046,0.7054,0.7063,0.6988,0.699,0.6991,0.7044,0,0.6706,0.6765,0.6769,0.6822,0.685,0.6843,0.6871,0.689,0.6898,0.6922,0.693,0.6958,0.6943,0.6952,0.6973,0.6983,0.7013,0.6979,0.7013,0.7014,0.7009,0.7072,0.7081,0.7131,0.7051,0.7052,0.7053,0,0.6777,0.6801,0.6857,0.6878,0.689,0.6915,0.6941,0.6965,0.6985,0.6989,0.7006,0.7004,0.7037,0.7014,0.7059,0.7036,0.7049,0.7056,0.7058,0.7062,0.7037,0.7078,0.7147,0.7155,0.7064,0.7063,0.7062,0,0.6818,0.6864,0.6904,0.6915,0.6941,0.6959,0.697,0.6989,0.7006,0.7028,0.7039,0.7064,0.7078,0.7098,0.7102,0.7085,0.7146,0.7124,0.715,0.715,0.7164,0.7163,0.7237,0.7172,0.7172,0.7172,0.7172,0,0.6878,0.6913,0.6923,0.6947,0.6985,0.6988,0.7025,0.7035,0.7052,0.7077,0.7072,0.7096,0.71,0.7124,0.7127,0.7163,0.7169,0.7173,0.7174,0.7174,0.7174,0.7184,0.718,0.7174,0.7173,0.7173,0.7173,0,0.6931,0.694,0.6982,0.7002,0.7008,0.7035,0.7052,0.7075,0.7082,0.7114,0.7122,0.7132,0.716,0.7166,0.72,0.7202,0.7245,0.7241,0.7238,0.7238,0.7264,0.7261,0.7347,0.7358,0.7286,0.7286,0.7287,0,0.6969,0.6996,0.7019,0.7036,0.7048,0.7075,0.7092,0.7096,0.7114,0.7138,0.7158,0.7185,0.7208,0.7253,0.7263,0.7288,0.7286,0.7314,0.7289,0.7289,0.7286,0.7285,0.7287,0.7319,0.7319,0.732,0.7321,0,0.7036,0.7038,0.7063,0.709,0.711,0.7131,0.7151,0.7165,0.7171,0.7191,0.722,0.7237,0.7271,0.7298,0.7323,0.7334,0.7328,0.7328,0.7335,0.7336,0.7333,0.7335,0.7251,0.7326,0.7326,0.7325,0.7325,0.7325,0.7083,0.7106,0.7126,0.7153,0.7169,0.7187,0.7209,0.7219,0.7244,0.7272,0.7272,0.7304,0.7322,0.7355,0.7367,0.7391,0.7382,0.7392,0.7395,0.7398,0.74,0.7329,0.7395,0.7395,0.7395,0.7395,0.7394,0,0.7149,0.7161,0.7187,0.7215,0.7237,0.723,0.7251,0.7269,0.7297,0.7315,0.7337,0.737,0.7396,0.7408,0.7433,0.745,0.7448,0.7457,0.7456,0.7458,0.7407,0.7398,0.7458,0.7458,0.7458,0.7458,0.7458,0.7458,0.7186,0.7224,0.7229,0.7275,0.7286,0.7318,0.7331,0.7347,0.7361,0.7398,0.742,0.7428,0.7443,0.7469,0.7493,0.7495,0.7505,0.7515,0.7517,0.7468,0.7462,0.7456,0.7448,0.7517,0.7517,0.7566,0.7566,0.7567]},{"header":{"parameterUnit":"m.s-1","parameterCategory":1,"la1":30.2991,"la2":30.254,"lo1":-89.0895,"lo2":-89.0444,"dy":0.0017,"dx":0.0017,"nx":28,"ny":28,"refTime":"2024-04-30T03:00:00:Z","depth":0,"parameterNumber":3,"parameterNumberName":"V-component_of_WINDS"},"data":[0,0,0,0,0,0,0,0,0,0,0,0,0,0,0,0,0,0,0,0,0,0,0,0,0,0,0,0,0,0,0,0,0,0,0,0,0,0,0,0,0,0,0,0,0,0,0,0,0,0,0,0,0,0,0,0,0,0,3.8577,3.8577,0,3.8616,3.8616,3.8617,3.8666,3.8667,3.8668,3.8669,3.8704,3.8704,3.8705,0,0,0,0,0,0,0,0,0,0,0,0,0,3.854,3.8541,3.8577,3.8577,3.8578,3.8616,3.8617,3.8617,3.8666,3.8667,3.8668,3.8669,3.8704,3.8704,3.8705,0,0,0,0,0,0,0,0,0,0,0,0,0,3.8565,3.8541,3.8577,3.8607,3.861,3.8616,3.8617,3.8617,3.8666,3.8667,3.8668,3.867,3.8704,3.8704,3.8705,3.8682,0,0,3.8706,3.8706,0,0,0,0,0,0,0,0,3.8564,3.8566,3.8602,3.8605,3.8609,3.8638,3.8617,3.8639,3.8666,3.8645,3.8669,3.867,3.8681,3.8683,3.8688,3.8684,3.8685,3.8706,3.8706,3.8706,3.8706,0,0,0,0,0,0,0,3.8562,3.8565,3.8592,3.8603,3.8607,3.8617,3.8622,3.8621,3.8655,3.8647,3.865,3.8655,3.8683,3.8687,3.8689,3.8686,3.8706,3.8706,3.8706,3.8706,3.8664,3.8663,0,0,0,0,0,0,3.8556,3.8563,3.8591,3.8593,3.8589,3.8617,3.8622,3.8627,3.8656,3.8661,3.8653,3.8657,3.8686,3.8688,3.869,3.8665,3.8706,3.8706,3.8706,3.8666,3.8664,3.8663,0,0,0,0,0,0,3.8555,3.8558,3.859,3.8579,3.8584,3.8616,3.8621,3.8627,3.8632,3.8661,3.8667,3.8652,3.8687,3.869,3.8684,3.8667,3.8706,3.8707,3.8667,3.8665,3.8663,3.8615,0,0,0,0,0,0,3.8554,3.8558,3.8551,3.8579,3.8585,3.8584,3.862,3.8627,3.8633,3.8637,3.8661,3.8666,3.8688,3.8683,3.8684,3.8668,3.8707,3.8669,3.8666,3.8664,3.8618,3.8611,3.8606,0,0,0,0,0,3.8553,3.8535,3.855,3.8553,3.8577,3.8583,3.8586,3.8613,3.8631,3.8623,3.8642,3.8665,3.8669,3.8682,3.8684,3.8667,3.867,3.8667,3.8664,3.8621,3.8613,3.8606,0,0,0,0,0,0,3.8502,3.8539,3.8556,3.8548,3.8562,3.8591,3.8582,3.8604,3.8612,3.8616,3.8648,3.8653,3.8643,3.8655,3.8669,3.8647,3.8673,3.867,3.8639,3.8632,3.8626,3.8623,3.8707,0,0,0,0,0,3.849,3.8494,3.8525,3.8514,3.852,3.855,3.8554,3.8574,3.8589,3.8595,3.8613,3.8626,3.863,3.8632,3.8637,3.862,3.8625,3.861,3.8603,3.8598,3.8595,3.8586,3.8579,3.8653,3.8653,3.8653,0,0,3.8465,3.8486,3.8486,3.8504,3.8518,3.8519,3.8555,3.8555,3.8555,3.8594,3.859,3.8604,3.862,3.8608,3.8604,3.8618,3.8576,3.8595,3.859,3.859,3.8582,3.8575,3.8569,3.8651,3.8652,3.8652,0,0,3.842,3.8436,3.8429,3.8441,3.8462,3.8482,3.848,3.8506,3.8517,3.8513,3.8542,3.8543,3.8549,3.8559,3.8565,3.8523,3.8544,3.8524,3.8491,3.8482,3.8476,3.8471,3.8455,3.8449,3.8521,3.8521,3.8521,0,3.8386,3.839,3.8421,3.842,3.8426,3.8463,3.8454,3.8465,3.8485,3.8488,3.8504,3.8512,3.8526,3.8516,3.8506,3.851,3.8507,3.8521,3.8475,3.847,3.8466,3.845,3.8444,3.8518,3.8518,3.8519,3.8519,0,3.8346,3.8349,3.834,3.836,3.8365,3.836,3.8389,3.8391,3.841,3.8427,3.8422,3.844,3.8449,3.8448,3.8467,3.8441,3.8449,3.8469,3.8496,3.8455,3.8442,3.8436,3.8514,3.8515,3.8516,3.8517,0,0,3.827,3.8308,3.8304,3.8313,3.8338,3.8339,3.8335,3.8345,3.8345,3.8358,3.8354,3.8358,3.8377,3.8383,3.8403,3.8395,3.8359,3.8416,3.8417,3.8404,3.833,3.8314,3.8307,3.8374,3.8373,3.8372,3.8329,0,3.8228,3.8224,3.8252,3.824,3.8242,3.8277,3.8273,3.8286,3.8302,3.8305,3.8322,3.8324,3.835,3.8354,3.8347,3.8365,3.8344,3.8368,3.8368,3.8368,3.8362,3.83,3.8283,3.8242,3.8323,3.8323,3.8322,0,3.8179,3.819,3.8179,3.8204,3.8205,3.8201,3.8212,3.8215,3.8231,3.8243,3.825,3.8273,3.8269,3.8295,3.8288,3.8304,3.8306,3.8314,3.8313,3.8313,3.8342,3.8298,3.8229,3.8222,3.8314,3.8315,3.8315,0,3.8123,3.8135,3.813,3.8136,3.8166,3.8162,3.8173,3.8191,3.8195,3.8204,3.8207,3.8215,3.8219,3.8223,3.8247,3.8264,3.8237,3.8266,3.8246,3.8245,3.8238,3.8238,3.8168,3.824,3.824,3.8241,3.8241,0,3.8073,3.8064,3.8105,3.8101,3.8092,3.8123,3.8112,3.8127,3.8142,3.8141,3.8171,3.8169,3.8201,3.8202,3.822,3.8211,3.8213,3.8221,3.8226,3.8218,3.8217,3.8219,3.8222,3.8239,3.8239,3.824,3.824,0,3.8008,3.8036,3.8031,3.806,3.8067,3.8058,3.8082,3.8078,3.8097,3.8094,3.8096,3.8123,3.8126,3.8151,3.8158,3.817,3.8154,3.8164,3.8149,3.8152,3.813,3.8131,3.8058,3.8049,3.8128,3.8127,3.8127,0,3.7974,3.7969,3.7996,3.7999,3.8009,3.8012,3.8017,3.8047,3.805,3.8067,3.8062,3.8067,3.8073,3.8074,3.8094,3.81,3.811,3.8084,3.8111,3.8103,3.8108,3.8108,3.8107,3.8078,3.8077,3.8076,3.8076,0,3.791,3.7924,3.793,3.7941,3.7946,3.7956,3.7967,3.7966,3.7999,3.8001,3.8005,3.8009,3.8017,3.8022,3.8031,3.8041,3.8063,3.8067,3.8063,3.8054,3.8044,3.8048,3.8132,3.8068,3.8069,3.807,3.807,3.807,3.7859,3.7855,3.7874,3.788,3.7892,3.7902,3.79,3.7918,3.7923,3.7932,3.795,3.795,3.7965,3.798,3.7988,3.7988,3.8002,3.7995,3.7993,3.7991,3.7986,3.8045,3.799,3.799,3.7991,3.7991,3.7991,0,3.7796,3.781,3.7815,3.783,3.7834,3.7857,3.787,3.7871,3.7872,3.7885,3.789,3.7894,3.7898,3.7918,3.7924,3.792,3.793,3.792,3.792,3.7922,3.7975,3.7978,3.7912,3.7912,3.7912,3.7912,3.7912,3.7912,3.7763,3.7757,3.7773,3.7773,3.7787,3.7789,3.7795,3.7803,3.7814,3.7817,3.7821,3.7835,3.785,3.7857,3.7861,3.7867,3.7867,3.7854,3.7863,3.7911,3.7919,3.7926,3.7929,3.7854,3.7854,3.781,3.781,3.7809]}]]